Location: Dzierzno
(50.6159°N, 19.2852°E)
Time: 06:58:34
(UTC+00:00)

Cosmos 1190 Rocket - Pass Details

Date: 18 November 2025
Orbit: 752 x 775 km, 74.1° (Epoch: 10 December)

Event Time Altitude Azimuth Distance (km) Brightness Sun altitude
Rises 16:13:59 0° 178° (S) 3,240 7.4 -12.7°
Reaches altitude 10° 16:16:29 10° 171° (S) 2,319 6.6 -13.1°
Maximum altitude 16:21:20 39° 104° (ESE) 1,154 4.5 -13.8°
Enters shadow 16:25:13 15° 42° (NE) 1,980 5.7 -14.4°
